AVA007 KMIA-SKBO

Flight info

Callsign AVA007
Flight time 2h 57m
Altitude 35000
Route GWAVA2 URSUS UP406 AKPEK UQ121 ISVAT ISVAT5E
Aircraft A320/M-SDE3FGHIRWY/LB1

Departure

Time 2026-05-06 21:58
Airport Miami International Airport (KMIA)

Arrival

Time 2026-05-07 00:55
Airport El Dorado International Airport (SKBO)
Time Latitude Longitude Altitude Speed Heading
2026-05-06 21:35 25.79241 -80.27303 13 ft 0 kts 281°
2026-05-06 21:42 25.79238 -80.27286 13 ft 2 kts 280°
2026-05-06 21:42 25.79236 -80.27269 13 ft 2 kts 281°
2026-05-06 21:42 25.79233 -80.27252 13 ft 2 kts 281°
2026-05-06 21:43 25.79231 -80.27241 13 ft 2 kts 282°
2026-05-06 21:43 25.79234 -80.27227 13 ft 2 kts 219°
2026-05-06 21:43 25.79244 -80.27222 13 ft 1 kts 176°
2026-05-06 21:43 25.79251 -80.27224 13 ft 0 kts 176°
2026-05-06 21:48 25.79230 -80.27222 13 ft 6 kts 176°
2026-05-06 21:48 25.79168 -80.27219 13 ft 11 kts 178°
2026-05-06 21:48 25.79079 -80.27216 13 ft 13 kts 177°
2026-05-06 21:48 25.78984 -80.27211 13 ft 13 kts 180°
2026-05-06 21:49 25.78929 -80.27277 13 ft 13 kts 266°
2026-05-06 21:49 25.78925 -80.27386 13 ft 14 kts 266°
2026-05-06 21:49 25.78914 -80.27496 13 ft 14 kts 259°
2026-05-06 21:49 25.78890 -80.27610 13 ft 15 kts 258°
2026-05-06 21:50 25.78880 -80.27728 13 ft 15 kts 270°
2026-05-06 21:50 25.78897 -80.27844 13 ft 15 kts 298°
2026-05-06 21:50 25.78953 -80.27952 13 ft 16 kts 299°
2026-05-06 21:50 25.79009 -80.28062 13 ft 16 kts 300°
2026-05-06 21:51 25.79064 -80.28172 13 ft 16 kts 299°
2026-05-06 21:51 25.79123 -80.28284 13 ft 16 kts 300°
2026-05-06 21:51 25.79150 -80.28405 13 ft 16 kts 266°
2026-05-06 21:51 25.79184 -80.28522 13 ft 16 kts 298°
2026-05-06 21:52 25.79242 -80.28634 13 ft 16 kts 299°
2026-05-06 21:52 25.79299 -80.28745 13 ft 16 kts 300°
2026-05-06 21:52 25.79357 -80.28860 13 ft 17 kts 300°
2026-05-06 21:52 25.79417 -80.28976 13 ft 17 kts 298°
2026-05-06 21:53 25.79474 -80.29093 13 ft 17 kts 299°
2026-05-06 21:53 25.79536 -80.29213 13 ft 18 kts 300°
2026-05-06 21:53 25.79600 -80.29337 13 ft 19 kts 300°
2026-05-06 21:53 25.79666 -80.29467 13 ft 19 kts 299°
2026-05-06 21:54 25.79731 -80.29594 13 ft 19 kts 299°
2026-05-06 21:54 25.79796 -80.29722 13 ft 18 kts 298°
2026-05-06 21:54 25.79862 -80.29851 13 ft 18 kts 300°
2026-05-06 21:54 25.79928 -80.29977 13 ft 18 kts 299°
2026-05-06 21:55 25.79996 -80.30101 13 ft 18 kts 316°
2026-05-06 21:55 25.80065 -80.30120 13 ft 7 kts 34°
2026-05-06 21:55 25.80077 -80.30077 13 ft 0 kts 87°
2026-05-06 21:57 25.80079 -80.30041 13 ft 25 kts 89°
2026-05-06 21:57 25.80093 -80.29582 13 ft 92 kts 87°
2026-05-06 21:57 25.80133 -80.28632 14 ft 149 kts 88°
2026-05-06 21:57 25.80189 -80.27369 321 ft 168 kts 87°
2026-05-06 21:58 25.80240 -80.26108 979 ft 165 kts 92°
2026-05-06 21:58 25.79886 -80.24934 1546 ft 168 kts 128°
2026-05-06 21:58 25.79005 -80.24043 1957 ft 172 kts 140°
2026-05-06 21:58 25.78010 -80.23199 2221 ft 184 kts 140°
2026-05-06 21:59 25.76968 -80.22284 2479 ft 197 kts 139°
2026-05-06 21:59 25.75885 -80.21286 2762 ft 209 kts 138°
2026-05-06 21:59 25.74706 -80.20171 2977 ft 228 kts 140°
2026-05-06 21:59 25.73249 -80.19292 3214 ft 248 kts 164°
2026-05-06 22:00 25.71442 -80.19063 3531 ft 265 kts 177°
2026-05-06 22:00 25.69425 -80.19016 4069 ft 274 kts 178°
2026-05-06 22:00 25.67429 -80.19058 4719 ft 277 kts 183°
2026-05-06 22:00 25.65499 -80.19270 5351 ft 281 kts 186°
2026-05-06 22:01 25.63508 -80.19542 6003 ft 284 kts 184°
2026-05-06 22:01 25.61527 -80.19359 6636 ft 286 kts 162°
2026-05-06 22:01 25.59711 -80.18432 7281 ft 287 kts 148°
2026-05-06 22:01 25.57967 -80.17271 7896 ft 291 kts 146°
2026-05-06 22:02 25.56197 -80.16066 8514 ft 294 kts 146°
2026-05-06 22:02 25.54378 -80.14835 9161 ft 298 kts 146°
2026-05-06 22:02 25.52573 -80.13626 9727 ft 302 kts 146°
2026-05-06 22:02 25.50750 -80.12415 10300 ft 307 kts 146°
2026-05-06 22:03 25.48833 -80.11144 10633 ft 321 kts 146°
2026-05-06 22:03 25.46782 -80.09786 10912 ft 336 kts 146°
2026-05-06 22:03 25.44634 -80.08369 11166 ft 350 kts 146°
2026-05-06 22:03 25.42422 -80.06912 11410 ft 364 kts 146°
2026-05-06 22:04 25.40189 -80.05443 11654 ft 375 kts 146°
2026-05-06 22:04 25.37901 -80.03941 12080 ft 380 kts 146°
2026-05-06 22:04 25.35611 -80.02437 12567 ft 382 kts 146°
2026-05-06 22:04 25.33339 -80.00945 13036 ft 385 kts 146°
2026-05-06 22:05 25.30993 -79.99404 13488 ft 388 kts 146°
2026-05-06 22:05 25.28685 -79.97887 13908 ft 391 kts 146°
2026-05-06 22:05 25.26313 -79.96308 14319 ft 394 kts 144°
2026-05-06 22:05 25.23984 -79.94666 14727 ft 397 kts 144°
2026-05-06 22:06 25.21606 -79.92979 15143 ft 399 kts 144°
2026-05-06 22:06 25.19262 -79.91315 15507 ft 403 kts 144°
2026-05-06 22:06 25.16895 -79.89635 15864 ft 407 kts 144°
2026-05-06 22:06 25.14456 -79.87905 16232 ft 410 kts 144°
2026-05-06 22:07 25.12063 -79.86211 16579 ft 413 kts 145°
2026-05-06 22:07 25.09572 -79.84447 16931 ft 416 kts 145°
2026-05-06 22:07 25.07112 -79.82706 17273 ft 419 kts 145°
2026-05-06 22:07 25.04584 -79.80917 17621 ft 421 kts 145°
2026-05-06 22:08 25.01984 -79.79079 17964 ft 424 kts 145°
2026-05-06 22:08 24.99461 -79.77296 18286 ft 427 kts 145°
2026-05-06 22:08 24.96926 -79.75506 18592 ft 430 kts 145°
2026-05-06 22:08 24.94379 -79.73707 18896 ft 433 kts 145°
2026-05-06 22:09 24.91765 -79.71861 19210 ft 436 kts 145°
2026-05-06 22:09 24.89166 -79.70028 19506 ft 438 kts 145°
2026-05-06 22:09 24.86517 -79.68162 19796 ft 441 kts 145°
2026-05-06 22:09 24.83796 -79.66246 20097 ft 443 kts 146°
2026-05-06 22:10 24.80981 -79.64265 20399 ft 446 kts 146°
2026-05-06 22:10 24.78336 -79.62403 20669 ft 449 kts 146°
2026-05-06 22:10 24.75715 -79.60558 20949 ft 451 kts 146°
2026-05-06 22:10 24.73062 -79.58693 21222 ft 453 kts 146°
2026-05-06 22:11 24.70364 -79.56795 21486 ft 455 kts 146°
2026-05-06 22:11 24.67612 -79.54861 21755 ft 458 kts 146°
2026-05-06 22:11 24.64788 -79.52879 22035 ft 460 kts 146°
2026-05-06 22:11 24.62058 -79.50962 22288 ft 462 kts 146°
2026-05-06 22:12 24.59349 -79.49060 22531 ft 465 kts 146°
2026-05-06 22:12 24.56625 -79.47148 22804 ft 466 kts 146°
2026-05-06 22:12 24.53853 -79.45207 23095 ft 468 kts 146°
2026-05-06 22:12 24.51115 -79.43287 23396 ft 469 kts 146°
2026-05-06 22:13 24.48387 -79.41376 23671 ft 470 kts 146°
2026-05-06 22:13 24.45596 -79.39421 23947 ft 471 kts 146°
2026-05-06 22:13 24.42834 -79.37488 24216 ft 473 kts 146°
2026-05-06 22:13 24.40058 -79.35545 24476 ft 475 kts 146°
2026-05-06 22:14 24.37284 -79.33604 24741 ft 476 kts 146°
2026-05-06 22:14 24.34447 -79.31623 25009 ft 477 kts 146°
2026-05-06 22:14 24.31661 -79.29678 25270 ft 479 kts 146°
2026-05-06 22:14 24.28832 -79.27689 25524 ft 480 kts 146°
2026-05-06 22:15 24.26026 -79.25679 25768 ft 482 kts 146°
2026-05-06 22:15 24.23229 -79.23664 26021 ft 483 kts 146°
2026-05-06 22:15 24.20431 -79.21647 26264 ft 485 kts 146°
2026-05-06 22:15 24.17578 -79.19595 26516 ft 486 kts 146°
2026-05-06 22:16 24.14761 -79.17571 26760 ft 487 kts 146°
2026-05-06 22:16 24.11902 -79.15519 26999 ft 489 kts 146°
2026-05-06 22:16 24.09057 -79.13480 27229 ft 490 kts 146°
2026-05-06 22:16 24.06179 -79.11418 27476 ft 491 kts 146°
2026-05-06 22:17 24.03326 -79.09399 27691 ft 493 kts 148°
2026-05-06 22:17 24.00228 -79.07652 27892 ft 495 kts 157°
2026-05-06 22:17 23.96953 -79.06401 28109 ft 496 kts 165°
2026-05-06 22:17 23.93564 -79.05599 28343 ft 496 kts 170°
2026-05-06 22:18 23.90119 -79.04927 28592 ft 496 kts 171°
2026-05-06 22:18 23.86699 -79.04286 28875 ft 495 kts 171°
2026-05-06 22:18 23.83250 -79.03635 29150 ft 494 kts 171°
2026-05-06 22:18 23.79854 -79.02982 29408 ft 494 kts 171°
2026-05-06 22:19 23.76461 -79.02322 29653 ft 494 kts 171°
2026-05-06 22:19 23.73043 -79.01651 29886 ft 494 kts 171°
2026-05-06 22:19 23.69639 -79.00980 30123 ft 494 kts 170°
2026-05-06 22:19 23.66185 -79.00297 30356 ft 494 kts 171°
2026-05-06 22:20 23.62768 -78.99622 30567 ft 494 kts 171°
2026-05-06 22:20 23.59302 -78.98938 30795 ft 494 kts 171°
2026-05-06 22:20 23.55848 -78.98256 31045 ft 494 kts 171°
2026-05-06 22:20 23.52429 -78.97581 31283 ft 493 kts 171°
2026-05-06 22:21 23.49035 -78.96912 31494 ft 493 kts 171°
2026-05-06 22:21 23.45564 -78.96229 31714 ft 493 kts 171°
2026-05-06 22:21 23.42088 -78.95544 31928 ft 493 kts 171°
2026-05-06 22:21 23.38689 -78.94875 32151 ft 493 kts 171°
2026-05-06 22:22 23.35290 -78.94206 32381 ft 493 kts 171°
2026-05-06 22:22 23.31908 -78.93541 32624 ft 492 kts 171°
2026-05-06 22:22 23.28562 -78.92882 32859 ft 492 kts 171°
2026-05-06 22:22 23.25176 -78.92216 33087 ft 491 kts 171°
2026-05-06 22:23 23.21821 -78.91557 33307 ft 491 kts 171°
2026-05-06 22:23 23.18462 -78.90900 33510 ft 491 kts 171°
2026-05-06 22:23 23.15060 -78.90234 33684 ft 492 kts 171°
2026-05-06 22:23 23.11701 -78.89578 33853 ft 492 kts 171°
2026-05-06 22:24 23.08335 -78.88917 34006 ft 493 kts 171°
2026-05-06 22:24 23.04931 -78.88250 34151 ft 493 kts 171°
2026-05-06 22:24 23.01580 -78.87594 34287 ft 494 kts 171°
2026-05-06 22:24 22.98183 -78.86928 34409 ft 495 kts 171°
2026-05-06 22:25 22.94764 -78.86258 34542 ft 495 kts 171°
2026-05-06 22:25 22.91372 -78.85594 34688 ft 495 kts 171°
2026-05-06 22:25 22.87987 -78.84933 34828 ft 495 kts 171°
2026-05-06 22:25 22.84553 -78.84262 34939 ft 496 kts 171°
2026-05-06 22:26 22.77765 -78.82934 35017 ft 496 kts 171°
2026-05-06 22:26 22.70919 -78.81597 35018 ft 496 kts 171°
2026-05-06 22:27 22.64090 -78.80263 35019 ft 497 kts 171°
2026-05-06 22:27 22.57227 -78.78926 35018 ft 496 kts 171°
2026-05-06 22:28 22.50067 -78.77537 35016 ft 497 kts 171°
2026-05-06 22:28 22.43209 -78.76208 35019 ft 496 kts 171°
2026-05-06 22:29 22.36396 -78.74889 35017 ft 496 kts 171°
2026-05-06 22:29 22.29618 -78.73576 35017 ft 496 kts 171°
2026-05-06 22:30 22.22759 -78.72249 35018 ft 496 kts 171°
2026-05-06 22:30 22.15997 -78.70940 35017 ft 496 kts 171°
2026-05-06 22:31 22.09151 -78.69617 35016 ft 496 kts 171°
2026-05-06 22:31 22.02324 -78.68298 35019 ft 496 kts 171°
2026-05-06 22:32 21.95472 -78.66975 35019 ft 497 kts 171°
2026-05-06 22:32 21.88654 -78.65662 35016 ft 497 kts 171°
2026-05-06 22:33 21.81775 -78.64339 35019 ft 496 kts 171°
2026-05-06 22:33 21.74940 -78.63025 35022 ft 496 kts 171°
2026-05-06 22:34 21.68121 -78.61715 35020 ft 496 kts 171°
2026-05-06 22:34 21.61285 -78.60404 35016 ft 496 kts 170°
2026-05-06 22:35 21.54454 -78.59094 35010 ft 495 kts 170°
2026-05-06 22:35 21.47575 -78.57775 35007 ft 496 kts 170°
2026-05-06 22:36 21.40713 -78.56461 35005 ft 495 kts 170°
2026-05-06 22:36 21.33702 -78.55122 35003 ft 495 kts 170°
2026-05-06 22:37 21.26616 -78.53769 34997 ft 495 kts 170°
2026-05-06 22:37 21.19722 -78.52452 34999 ft 495 kts 170°
2026-05-06 22:38 21.12757 -78.51124 35001 ft 495 kts 170°
2026-05-06 22:38 21.05593 -78.49760 35002 ft 495 kts 170°
2026-05-06 22:39 20.98425 -78.48399 35001 ft 495 kts 170°
2026-05-06 22:39 20.92014 -78.47181 35002 ft 495 kts 170°
2026-05-06 22:40 20.85134 -78.45875 35002 ft 495 kts 169°
2026-05-06 22:40 20.78260 -78.44569 35001 ft 495 kts 169°
2026-05-06 22:41 20.68009 -78.42626 35001 ft 495 kts 169°
2026-05-06 22:42 20.61099 -78.41318 35001 ft 495 kts 169°
2026-05-06 22:42 20.54290 -78.40029 35001 ft 494 kts 169°
2026-05-06 22:43 20.47493 -78.38744 35001 ft 495 kts 169°
2026-05-06 22:43 20.40657 -78.37453 35001 ft 495 kts 169°
2026-05-06 22:44 20.33830 -78.36166 35000 ft 495 kts 169°
2026-05-06 22:44 20.26719 -78.34824 35000 ft 494 kts 169°
2026-05-06 22:45 20.19711 -78.33504 35001 ft 494 kts 169°
2026-05-06 22:45 20.12842 -78.32210 35000 ft 494 kts 169°
2026-05-06 22:46 20.05946 -78.30912 35001 ft 494 kts 169°
2026-05-06 22:46 19.99059 -78.29617 34999 ft 494 kts 169°
2026-05-06 22:47 19.92253 -78.28129 35000 ft 494 kts 167°
2026-05-06 22:47 19.85515 -78.26575 34995 ft 493 kts 167°
2026-05-06 22:48 19.78742 -78.25015 34995 ft 494 kts 167°
2026-05-06 22:48 19.71850 -78.23428 34996 ft 494 kts 167°
2026-05-06 22:49 19.64884 -78.21827 34994 ft 493 kts 167°
2026-05-06 22:49 19.57887 -78.20222 34993 ft 493 kts 167°
2026-05-06 22:50 19.51125 -78.18669 34993 ft 494 kts 167°
2026-05-06 22:50 19.44174 -78.17077 34989 ft 493 kts 167°
2026-05-06 22:51 19.37378 -78.15521 34987 ft 494 kts 167°
2026-05-06 22:51 19.30607 -78.13972 34987 ft 493 kts 167°
2026-05-06 22:52 19.23859 -78.12430 34985 ft 492 kts 167°
2026-05-06 22:52 19.17112 -78.10889 34985 ft 493 kts 167°
2026-05-06 22:53 19.10399 -78.09357 34980 ft 493 kts 167°
2026-05-06 22:53 19.03636 -78.07815 34976 ft 493 kts 167°
2026-05-06 22:54 18.96918 -78.06287 34975 ft 493 kts 167°
2026-05-06 22:54 18.90177 -78.04752 34975 ft 493 kts 166°
2026-05-06 22:55 18.83447 -78.03220 34977 ft 493 kts 166°
2026-05-06 22:55 18.76724 -78.01693 34975 ft 493 kts 166°
2026-05-06 22:56 18.70012 -78.00169 34973 ft 492 kts 166°
2026-05-06 22:56 18.63325 -77.98651 34974 ft 493 kts 166°
2026-05-06 22:57 18.56598 -77.97127 34973 ft 493 kts 166°
2026-05-06 22:57 18.49851 -77.95600 34973 ft 492 kts 166°
2026-05-06 22:58 18.43126 -77.94077 34979 ft 492 kts 166°
2026-05-06 22:58 18.36410 -77.92559 34993 ft 492 kts 166°
2026-05-06 22:59 18.29705 -77.91044 35005 ft 492 kts 166°
2026-05-06 22:59 18.22973 -77.89525 35017 ft 492 kts 166°
2026-05-06 23:00 18.16259 -77.88010 35005 ft 492 kts 166°
2026-05-06 23:00 18.09563 -77.86500 34991 ft 493 kts 166°
2026-05-06 23:01 18.02870 -77.84992 34975 ft 491 kts 166°
2026-05-06 23:01 17.96140 -77.83479 34965 ft 491 kts 166°
2026-05-06 23:02 17.89456 -77.81976 34962 ft 491 kts 166°
2026-05-06 23:02 17.82736 -77.80466 34961 ft 491 kts 166°
2026-05-06 23:03 17.76046 -77.78964 34963 ft 492 kts 166°
2026-05-06 23:03 17.69312 -77.77451 34964 ft 492 kts 166°
2026-05-06 23:04 17.62624 -77.75953 34963 ft 491 kts 166°
2026-05-06 23:04 17.55944 -77.74456 34963 ft 491 kts 166°
2026-05-06 23:05 17.49263 -77.72961 34961 ft 491 kts 166°
2026-05-06 23:05 17.42576 -77.71465 34961 ft 490 kts 166°
2026-05-06 23:06 17.35890 -77.69969 34960 ft 491 kts 166°
2026-05-06 23:06 17.29178 -77.68469 34961 ft 490 kts 166°
2026-05-06 23:07 17.22488 -77.66975 34961 ft 490 kts 166°
2026-05-06 23:07 17.15854 -77.65496 34958 ft 490 kts 165°
2026-05-06 23:08 17.09153 -77.64004 34960 ft 490 kts 165°
2026-05-06 23:08 17.02452 -77.62511 34958 ft 489 kts 165°
2026-05-06 23:09 16.95801 -77.61031 34954 ft 489 kts 165°
2026-05-06 23:09 16.89145 -77.59551 34957 ft 489 kts 165°
2026-05-06 23:10 16.82429 -77.58057 34953 ft 489 kts 165°
2026-05-06 23:10 16.75770 -77.56577 34954 ft 489 kts 165°
2026-05-06 23:11 16.69106 -77.55099 34952 ft 488 kts 165°
2026-05-06 23:11 16.62469 -77.53627 34952 ft 488 kts 165°
2026-05-06 23:12 16.55813 -77.52151 34952 ft 488 kts 165°
2026-05-06 23:12 16.49156 -77.50677 34946 ft 488 kts 165°
2026-05-06 23:13 16.42506 -77.49205 34947 ft 487 kts 165°
2026-05-06 23:13 16.35881 -77.47739 34943 ft 486 kts 165°
2026-05-06 23:14 16.29243 -77.46272 34943 ft 486 kts 165°
2026-05-06 23:14 16.22599 -77.44804 34942 ft 486 kts 165°
2026-05-06 23:15 16.15992 -77.43346 34945 ft 486 kts 165°
2026-05-06 23:15 16.09352 -77.41880 34940 ft 485 kts 165°
2026-05-06 23:16 16.02743 -77.40420 34940 ft 485 kts 165°
2026-05-06 23:16 15.96122 -77.38972 34939 ft 485 kts 166°
2026-05-06 23:17 15.89514 -77.37655 34938 ft 484 kts 166°
2026-05-06 23:17 15.82859 -77.36346 34939 ft 484 kts 166°
2026-05-06 23:18 15.76213 -77.35030 34938 ft 484 kts 166°
2026-05-06 23:18 15.69591 -77.33714 34938 ft 484 kts 166°
2026-05-06 23:19 15.62990 -77.32400 34934 ft 483 kts 166°
2026-05-06 23:19 15.56389 -77.31087 34930 ft 483 kts 166°
2026-05-06 23:20 15.49743 -77.29765 34929 ft 482 kts 166°
2026-05-06 23:20 15.43143 -77.28455 34928 ft 482 kts 166°
2026-05-06 23:21 15.36484 -77.27133 34929 ft 482 kts 166°
2026-05-06 23:21 15.29930 -77.25832 34928 ft 481 kts 166°
2026-05-06 23:22 15.23324 -77.24522 34927 ft 481 kts 166°
2026-05-06 23:22 15.16731 -77.23215 34926 ft 480 kts 166°
2026-05-06 23:23 15.10179 -77.21917 34925 ft 480 kts 166°
2026-05-06 23:23 15.03630 -77.20618 34922 ft 479 kts 166°
2026-05-06 23:24 14.97034 -77.19309 34919 ft 479 kts 166°
2026-05-06 23:24 14.90483 -77.17992 34918 ft 479 kts 166°
2026-05-06 23:25 14.83930 -77.16670 34923 ft 479 kts 166°
2026-05-06 23:25 14.77403 -77.15356 34927 ft 478 kts 166°
2026-05-06 23:26 14.70859 -77.14040 34925 ft 478 kts 166°
2026-05-06 23:26 14.64318 -77.12724 34927 ft 478 kts 166°
2026-05-06 23:27 14.57761 -77.11405 34921 ft 479 kts 166°
2026-05-06 23:27 14.51216 -77.10090 34919 ft 478 kts 166°
2026-05-06 23:28 14.44631 -77.08768 34918 ft 478 kts 166°
2026-05-06 23:28 14.38130 -77.07463 34913 ft 478 kts 166°
2026-05-06 23:29 14.31597 -77.06154 34916 ft 478 kts 166°
2026-05-06 23:29 14.25022 -77.04836 34922 ft 478 kts 166°
2026-05-06 23:30 14.18509 -77.03532 34923 ft 478 kts 166°
2026-05-06 23:30 14.11946 -77.02217 34920 ft 477 kts 166°
2026-05-06 23:31 14.05445 -77.00916 34919 ft 477 kts 167°
2026-05-06 23:31 13.98919 -76.99612 34916 ft 476 kts 167°
2026-05-06 23:32 13.92400 -76.98309 34914 ft 477 kts 167°
2026-05-06 23:32 13.85877 -76.97006 34914 ft 477 kts 167°
2026-05-06 23:33 13.79318 -76.95698 34914 ft 477 kts 167°
2026-05-06 23:33 13.72771 -76.94391 34912 ft 477 kts 167°
2026-05-06 23:34 13.66257 -76.93092 34913 ft 477 kts 167°
2026-05-06 23:34 13.59756 -76.91796 34910 ft 477 kts 167°
2026-05-06 23:35 13.53197 -76.90490 34908 ft 478 kts 167°
2026-05-06 23:35 13.46656 -76.89188 34908 ft 477 kts 167°
2026-05-06 23:36 13.40138 -76.87891 34906 ft 477 kts 167°
2026-05-06 23:36 13.33589 -76.86590 34906 ft 477 kts 167°
2026-05-06 23:37 13.27079 -76.85294 34903 ft 476 kts 167°
2026-05-06 23:37 13.20543 -76.83997 34901 ft 476 kts 167°
2026-05-06 23:38 13.14033 -76.82704 34902 ft 477 kts 167°
2026-05-06 23:38 13.07479 -76.81403 34900 ft 477 kts 167°
2026-05-06 23:39 13.00987 -76.80115 34897 ft 477 kts 167°
2026-05-06 23:39 12.94445 -76.78819 34896 ft 476 kts 167°
2026-05-06 23:40 12.87935 -76.77527 34892 ft 476 kts 167°
2026-05-06 23:40 12.81387 -76.76229 34885 ft 477 kts 167°
2026-05-06 23:41 12.74872 -76.74937 34884 ft 478 kts 167°
2026-05-06 23:41 12.68317 -76.73640 34882 ft 479 kts 167°
2026-05-06 23:42 12.61738 -76.72350 34886 ft 479 kts 168°
2026-05-06 23:42 12.55220 -76.71074 34881 ft 479 kts 168°
2026-05-06 23:43 12.48658 -76.69787 34879 ft 479 kts 168°
2026-05-06 23:43 12.42077 -76.68496 34877 ft 479 kts 168°
2026-05-06 23:44 12.35512 -76.67207 34875 ft 480 kts 168°
2026-05-06 23:44 12.28948 -76.65919 34873 ft 480 kts 168°
2026-05-06 23:45 12.22396 -76.64635 34867 ft 480 kts 168°
2026-05-06 23:45 12.15805 -76.63345 34861 ft 480 kts 168°
2026-05-06 23:46 12.09232 -76.62059 34859 ft 479 kts 168°
2026-05-06 23:46 12.02691 -76.60780 34856 ft 480 kts 168°
2026-05-06 23:47 11.96113 -76.59491 34854 ft 480 kts 169°
2026-05-06 23:47 11.89573 -76.58212 34854 ft 479 kts 169°
2026-05-06 23:48 11.82995 -76.56927 34854 ft 479 kts 169°
2026-05-06 23:48 11.76437 -76.55647 34853 ft 479 kts 169°
2026-05-06 23:49 11.69876 -76.54366 34852 ft 478 kts 169°
2026-05-06 23:49 11.63345 -76.53091 34852 ft 478 kts 169°
2026-05-06 23:50 11.56794 -76.51814 34852 ft 479 kts 169°
2026-05-06 23:50 11.46937 -76.49892 34850 ft 478 kts 169°
2026-05-06 23:51 11.40376 -76.48614 34846 ft 478 kts 169°
2026-05-06 23:51 11.33815 -76.47337 34849 ft 478 kts 169°
2026-05-06 23:52 11.27283 -76.46066 34851 ft 477 kts 169°
2026-05-06 23:52 11.20756 -76.44795 34853 ft 477 kts 169°
2026-05-06 23:53 11.14226 -76.43525 34854 ft 477 kts 169°
2026-05-06 23:53 11.07682 -76.42252 34856 ft 477 kts 169°
2026-05-06 23:54 11.01132 -76.40981 34855 ft 476 kts 169°
2026-05-06 23:54 10.94621 -76.39716 34854 ft 476 kts 169°
2026-05-06 23:55 10.88073 -76.38446 34854 ft 476 kts 169°
2026-05-06 23:55 10.81555 -76.37182 34854 ft 476 kts 169°
2026-05-06 23:56 10.75020 -76.35914 34855 ft 477 kts 169°
2026-05-06 23:56 10.68478 -76.34645 34853 ft 477 kts 169°
2026-05-06 23:57 10.61976 -76.33385 34853 ft 477 kts 169°
2026-05-06 23:57 10.55403 -76.32112 34850 ft 477 kts 169°
2026-05-06 23:58 10.48858 -76.30845 34848 ft 477 kts 169°
2026-05-06 23:58 10.42366 -76.29590 34847 ft 477 kts 169°
2026-05-06 23:59 10.35823 -76.28324 34842 ft 478 kts 169°
2026-05-06 23:59 10.29284 -76.27059 34842 ft 478 kts 169°
2026-05-07 00:00 10.22741 -76.25793 34841 ft 478 kts 169°
2026-05-07 00:00 10.17250 -76.24732 34839 ft 478 kts 169°
2026-05-07 00:01 10.09605 -76.23256 34839 ft 478 kts 169°
2026-05-07 00:01 10.03064 -76.21994 34838 ft 478 kts 169°
2026-05-07 00:02 9.96541 -76.20735 34835 ft 478 kts 169°
2026-05-07 00:02 9.89992 -76.19471 34841 ft 478 kts 169°
2026-05-07 00:03 9.83415 -76.18201 34848 ft 477 kts 169°
2026-05-07 00:03 9.76889 -76.16943 34854 ft 476 kts 169°
2026-05-07 00:04 9.70354 -76.15683 34851 ft 477 kts 169°
2026-05-07 00:04 9.63859 -76.14430 34855 ft 476 kts 169°
2026-05-07 00:05 9.57345 -76.13175 34853 ft 476 kts 169°
2026-05-07 00:05 9.50817 -76.11887 34854 ft 476 kts 169°
2026-05-07 00:06 9.44301 -76.10585 34853 ft 476 kts 169°
2026-05-07 00:06 9.37783 -76.09284 34854 ft 477 kts 169°
2026-05-07 00:07 9.31252 -76.07981 34852 ft 477 kts 169°
2026-05-07 00:07 9.24714 -76.06679 34849 ft 478 kts 169°
2026-05-07 00:08 9.18181 -76.05377 34845 ft 477 kts 169°
2026-05-07 00:08 9.11627 -76.04071 34846 ft 477 kts 169°
2026-05-07 00:09 9.05092 -76.02769 34847 ft 476 kts 169°
2026-05-07 00:09 8.98575 -76.01472 34844 ft 476 kts 169°
2026-05-07 00:10 8.92018 -76.00167 34848 ft 477 kts 169°
2026-05-07 00:10 8.85457 -75.98863 34848 ft 476 kts 169°
2026-05-07 00:11 8.78946 -75.97569 34844 ft 476 kts 169°
2026-05-07 00:11 8.72373 -75.96262 34847 ft 476 kts 169°
2026-05-07 00:12 8.65880 -75.94972 34853 ft 475 kts 169°
2026-05-07 00:12 8.59343 -75.93672 34860 ft 475 kts 169°
2026-05-07 00:13 8.52843 -75.92381 34867 ft 474 kts 169°
2026-05-07 00:13 8.46322 -75.91089 34868 ft 474 kts 169°
2026-05-07 00:14 8.39870 -75.89811 34877 ft 472 kts 168°
2026-05-07 00:14 8.33408 -75.88527 34881 ft 472 kts 168°
2026-05-07 00:15 8.26951 -75.87245 34878 ft 471 kts 168°
2026-05-07 00:15 8.20483 -75.85960 34884 ft 471 kts 168°
2026-05-07 00:16 8.14013 -75.84677 34899 ft 472 kts 169°
2026-05-07 00:16 8.07573 -75.83401 34910 ft 471 kts 168°
2026-05-07 00:17 8.01101 -75.82117 34921 ft 472 kts 169°
2026-05-07 00:17 7.94663 -75.80844 34934 ft 471 kts 168°
2026-05-07 00:18 7.88200 -75.79562 34935 ft 470 kts 168°
2026-05-07 00:18 7.81734 -75.78273 34936 ft 469 kts 168°
2026-05-07 00:19 7.75275 -75.76986 34937 ft 470 kts 168°
2026-05-07 00:19 7.68696 -75.75677 34952 ft 470 kts 168°
2026-05-07 00:20 7.62255 -75.74396 34999 ft 470 kts 168°
2026-05-07 00:20 7.55707 -75.73096 35041 ft 470 kts 168°
2026-05-07 00:21 7.49248 -75.71813 35065 ft 470 kts 168°
2026-05-07 00:21 7.42482 -75.70467 35088 ft 470 kts 168°
2026-05-07 00:22 7.35483 -75.69075 35100 ft 470 kts 168°
2026-05-07 00:22 7.28538 -75.67695 35112 ft 470 kts 168°
2026-05-07 00:23 7.21760 -75.66348 35139 ft 470 kts 168°
2026-05-07 00:23 7.15027 -75.65012 35156 ft 470 kts 168°
2026-05-07 00:24 7.08275 -75.63673 35191 ft 470 kts 168°
2026-05-07 00:24 7.01585 -75.62345 35228 ft 470 kts 168°
2026-05-07 00:25 6.95005 -75.61040 35257 ft 470 kts 168°
2026-05-07 00:25 6.88488 -75.59747 35298 ft 470 kts 168°
2026-05-07 00:26 6.81932 -75.58447 35340 ft 470 kts 168°
2026-05-07 00:26 6.75292 -75.57131 35378 ft 470 kts 168°
2026-05-07 00:27 6.68722 -75.55829 35377 ft 470 kts 168°
2026-05-07 00:27 6.62030 -75.54503 35349 ft 470 kts 168°
2026-05-07 00:28 6.55595 -75.53228 35327 ft 469 kts 168°
2026-05-07 00:28 6.49051 -75.51932 35302 ft 475 kts 168°
2026-05-07 00:29 6.42478 -75.50632 35296 ft 475 kts 168°
2026-05-07 00:30 6.29047 -75.47973 35325 ft 476 kts 168°
2026-05-07 00:30 6.22123 -75.46601 35328 ft 476 kts 168°
2026-05-07 00:31 6.18718 -75.45927 35145 ft 476 kts 168°
2026-05-07 00:31 6.15242 -75.45239 34749 ft 475 kts 168°
2026-05-07 00:31 6.11696 -75.44538 34110 ft 468 kts 168°
2026-05-07 00:31 6.08214 -75.43850 33367 ft 464 kts 168°
2026-05-07 00:32 6.04643 -75.43126 32556 ft 461 kts 165°
2026-05-07 00:32 6.01387 -75.42120 31814 ft 460 kts 158°
2026-05-07 00:32 5.98204 -75.40626 30976 ft 460 kts 149°
2026-05-07 00:32 5.95338 -75.38751 30123 ft 459 kts 141°
2026-05-07 00:33 5.92809 -75.36557 29249 ft 458 kts 134°
2026-05-07 00:33 5.90429 -75.34145 28418 ft 457 kts 133°
2026-05-07 00:33 5.88196 -75.31821 27904 ft 453 kts 133°
2026-05-07 00:33 5.85986 -75.29520 27355 ft 448 kts 133°
2026-05-07 00:34 5.83659 -75.27110 26780 ft 444 kts 133°
2026-05-07 00:34 5.81422 -75.24803 26218 ft 439 kts 133°
2026-05-07 00:34 5.79195 -75.22511 25648 ft 435 kts 133°
2026-05-07 00:34 5.76928 -75.20183 25045 ft 431 kts 133°
2026-05-07 00:35 5.74711 -75.17909 24455 ft 427 kts 133°
2026-05-07 00:35 5.72542 -75.15683 23865 ft 423 kts 133°
2026-05-07 00:35 5.70299 -75.13651 23292 ft 422 kts 141°
2026-05-07 00:35 5.67744 -75.11949 22707 ft 420 kts 149°
2026-05-07 00:36 5.64997 -75.10633 22132 ft 419 kts 155°
2026-05-07 00:36 5.62093 -75.09433 21548 ft 417 kts 156°
2026-05-07 00:36 5.59216 -75.08270 20966 ft 415 kts 156°
2026-05-07 00:36 5.56462 -75.07151 20399 ft 413 kts 156°
2026-05-07 00:37 5.53659 -75.06004 19817 ft 412 kts 155°
2026-05-07 00:37 5.50883 -75.04864 19237 ft 411 kts 155°
2026-05-07 00:37 5.48153 -75.03740 18669 ft 408 kts 155°
2026-05-07 00:37 5.45452 -75.02627 18345 ft 403 kts 155°
2026-05-07 00:38 5.42821 -75.01540 18086 ft 399 kts 155°
2026-05-07 00:38 5.40190 -75.00455 17779 ft 389 kts 155°
2026-05-07 00:38 5.37581 -74.99380 17630 ft 374 kts 154°
2026-05-07 00:38 5.35093 -74.98332 17639 ft 358 kts 154°
2026-05-07 00:39 5.32666 -74.97298 17646 ft 356 kts 154°
2026-05-07 00:39 5.30307 -74.96292 17661 ft 355 kts 153°
2026-05-07 00:39 5.28012 -74.95316 17659 ft 354 kts 154°
2026-05-07 00:39 5.25720 -74.94342 17680 ft 355 kts 154°
2026-05-07 00:40 5.23423 -74.93368 17680 ft 355 kts 153°
2026-05-07 00:40 5.21235 -74.92168 17656 ft 349 kts 139°
2026-05-07 00:40 5.19529 -74.90453 17518 ft 346 kts 123°
2026-05-07 00:40 5.18250 -74.88372 17106 ft 340 kts 116°
2026-05-07 00:41 5.17089 -74.86266 16980 ft 326 kts 116°
2026-05-07 00:41 5.16016 -74.84331 16968 ft 311 kts 116°
2026-05-07 00:41 5.14966 -74.82484 16958 ft 301 kts 117°
2026-05-07 00:41 5.13880 -74.80605 16949 ft 301 kts 117°
2026-05-07 00:42 5.12930 -74.78710 16912 ft 302 kts 104°
2026-05-07 00:42 5.12754 -74.76620 16758 ft 304 kts 81°
2026-05-07 00:42 5.13429 -74.74618 16705 ft 306 kts 60°
2026-05-07 00:42 5.14829 -74.72961 16689 ft 309 kts 45°
2026-05-07 00:43 5.16420 -74.71479 16661 ft 309 kts 45°
2026-05-07 00:43 5.17999 -74.70003 16655 ft 309 kts 45°
2026-05-07 00:43 5.19590 -74.68507 16661 ft 308 kts 45°
2026-05-07 00:43 5.21147 -74.67030 16663 ft 309 kts 47°
2026-05-07 00:44 5.22369 -74.65265 16396 ft 304 kts 72°
2026-05-07 00:44 5.22611 -74.63133 16158 ft 304 kts 95°
2026-05-07 00:44 5.22040 -74.61090 15994 ft 306 kts 114°
2026-05-07 00:44 5.20757 -74.59339 15857 ft 312 kts 134°
2026-05-07 00:45 5.18895 -74.58131 15726 ft 317 kts 151°
2026-05-07 00:45 5.16826 -74.57179 15588 ft 316 kts 152°
2026-05-07 00:45 5.14802 -74.56253 15463 ft 314 kts 150°
2026-05-07 00:45 5.12847 -74.55223 15336 ft 312 kts 146°
2026-05-07 00:46 5.10981 -74.54074 15216 ft 311 kts 144°
2026-05-07 00:46 5.09119 -74.52895 15131 ft 310 kts 143°
2026-05-07 00:46 5.07256 -74.51711 15086 ft 309 kts 143°
2026-05-07 00:46 5.05402 -74.50532 15024 ft 309 kts 144°
2026-05-07 00:47 5.03536 -74.49348 14978 ft 309 kts 144°
2026-05-07 00:47 5.01692 -74.48182 14729 ft 308 kts 143°
2026-05-07 00:47 4.99870 -74.47028 14262 ft 311 kts 144°
2026-05-07 00:47 4.98036 -74.45867 13827 ft 311 kts 144°
2026-05-07 00:48 4.96167 -74.44685 13450 ft 309 kts 144°
2026-05-07 00:48 4.94317 -74.43515 13260 ft 300 kts 144°
2026-05-07 00:48 4.92523 -74.42378 13253 ft 283 kts 141°
2026-05-07 00:48 4.91016 -74.41142 13278 ft 271 kts 130°
2026-05-07 00:49 4.89771 -74.39688 13330 ft 269 kts 124°
2026-05-07 00:49 4.88645 -74.38171 13281 ft 268 kts 123°
2026-05-07 00:49 4.87543 -74.36662 13049 ft 262 kts 123°
2026-05-07 00:49 4.86456 -74.35191 12732 ft 258 kts 123°
2026-05-07 00:50 4.85377 -74.33749 12437 ft 248 kts 124°
2026-05-07 00:50 4.84365 -74.32408 12155 ft 239 kts 124°
2026-05-07 00:50 4.83380 -74.31107 11890 ft 230 kts 125°
2026-05-07 00:50 4.82417 -74.29838 11619 ft 221 kts 124°
2026-05-07 00:51 4.81519 -74.28653 11460 ft 208 kts 126°
2026-05-07 00:51 4.80649 -74.27504 11179 ft 203 kts 126°
2026-05-07 00:51 4.79803 -74.26389 10905 ft 198 kts 125°
2026-05-07 00:51 4.78991 -74.25317 10651 ft 185 kts 127°
2026-05-07 00:52 4.78235 -74.24318 10414 ft 175 kts 127°
2026-05-07 00:52 4.77502 -74.23350 10204 ft 175 kts 125°
2026-05-07 00:52 4.76759 -74.22364 10004 ft 176 kts 128°
2026-05-07 00:52 4.76009 -74.21378 9785 ft 175 kts 126°
2026-05-07 00:53 4.75275 -74.20408 9553 ft 164 kts 126°
2026-05-07 00:53 4.74614 -74.19534 9351 ft 155 kts 128°
2026-05-07 00:53 4.73959 -74.18671 9170 ft 154 kts 125°
2026-05-07 00:53 4.73311 -74.17815 8990 ft 153 kts 125°
2026-05-07 00:54 4.72663 -74.16956 8800 ft 153 kts 127°
2026-05-07 00:54 4.72022 -74.16109 8604 ft 152 kts 127°
2026-05-07 00:54 4.71369 -74.15243 8419 ft 150 kts 127°
2026-05-07 00:54 4.70763 -74.14446 8371 ft 126 kts 128°
2026-05-07 00:55 4.70331 -74.13875 8372 ft 75 kts 128°
2026-05-07 00:55 4.70072 -74.13532 8373 ft 55 kts 126°
2026-05-07 00:55 4.69888 -74.13333 8373 ft 27 kts 159°
2026-05-07 00:55 4.69744 -74.13301 8373 ft 12 kts 170°
2026-05-07 00:56 4.69674 -74.13319 8373 ft 11 kts 260°
2026-05-07 00:56 4.69712 -74.13392 8373 ft 12 kts 309°
2026-05-07 00:56 4.69764 -74.13456 8373 ft 11 kts 308°
2026-05-07 00:56 4.69813 -74.13519 8373 ft 11 kts 308°
2026-05-07 00:57 4.69834 -74.13584 8373 ft 10 kts 234°
2026-05-07 00:57 4.69777 -74.13625 8373 ft 9 kts 216°
2026-05-07 00:57 4.69757 -74.13683 8373 ft 9 kts 293°
2026-05-07 00:57 4.69771 -74.13722 8373 ft 4 kts 237°
2026-05-07 00:58 4.69743 -74.13741 8372 ft 4 kts 212°
2026-05-07 00:58 4.69717 -74.13760 8372 ft 4 kts 218°
2026-05-07 00:58 4.69709 -74.13766 8372 ft 0 kts 218°
2026-05-07 00:58 4.69706 -74.13768 8372 ft 0 kts 218°